Flag for Romania Weather past 2 weeks in Bucharest, Romania

41 °F

More clouds than sun.

Feels Like: 35 °F
Forecast: 34 / 44 °F
Wind: 9 mph from Northeast

Location: Bucharest / Imh

Current Time: Nov 28, 2015 at 10:28:44 AM

Latest Report: Nov 28, 2015 at 10:00 AM

Visibility: N/A

Pressure: 29.77 "Hg

Humidity: 100%

Dew point: 41 °F

Location of BucharestLocation

Historic Weather in Bucharest — Graph


Bucharest temperature yesterday

Maximum temperature yesterday: 39 °F (at 12:00 AM)
Minimum temperature yesterday: 37 °F (at 7:00 AM)
Average temperature yesterday: 38 °F

Past Weeks' High & Low Weather Summary

High66 °F (Nov 19, 3:30 PM)100% (Nov 13, 9:30 PM)30.39 "Hg (Nov 13, 9:30 PM)
Low36 °F (Nov 25, 7:00 PM)29% (Nov 14, 10:30 PM)29.30 "Hg (Nov 22, 1:30 AM)
Average48 °F77%29.93 "Hg
* Reported Nov 13 8:00 AM — Nov 28 8:30 AM, Bucharest, Weather by CustomWeather, © 2015

Note: Actual official high and low records may vary slightly from our data, if they occured in-between our weather recording intervals... More about our weather records


Bucharest weather history for previous 24 hours

Time TempWeatherWind HumidityBarometerVisibility
8:30 AM
Sat, Nov 28
39 °FScattered clouds.10 mph100%29.77 "HgN/A
8:00 AM39 °FScattered clouds.12 mph93%29.77 "HgN/A
7:30 AM39 °FScattered clouds.14 mph93%29.77 "HgN/A
6:30 AM39 °FPassing clouds.17 mph93%29.74 "HgN/A
6:00 AM39 °FLight rain. Passing clouds.20 mph100%29.74 "HgN/A
5:30 AM39 °FLight rain. Passing clouds.18 mph100%29.74 "HgN/A
5:00 AM39 °FLight rain. Passing clouds.23 mph93%29.71 "HgN/A
4:30 AM39 °FRain. Mostly cloudy.22 mph93%29.74 "Hg4 mi
4:00 AM39 °FRain. Mostly cloudy.18 mph93%29.80 "Hg4 mi
3:30 AM39 °FLight rain. Passing clouds.17 mph93%29.80 "HgN/A
2:00 AM37 °FRain. Low clouds.21 mph93%29.80 "Hg2 mi
1:30 AM37 °FHeavy rain. Low clouds.23 mph93%29.80 "Hg2 mi
1:00 AM37 °FRain. Low clouds.26 mph93%29.80 "Hg2 mi
12:30 AM37 °FRain. Low clouds.23 mph93%29.80 "Hg2 mi
12:00 AM37 °FRain. Low clouds.23 mph93%29.83 "Hg2 mi
11:30 PM
Fri, Nov 27
37 °FRain. Low clouds.24 mph93%29.83 "Hg3 mi
11:00 PM37 °FLight rain. Passing clouds.24 mph93%29.86 "Hg4 mi
10:30 PM37 °FLight rain. Low clouds.25 mph93%29.86 "Hg6 mi
10:00 PM37 °FRain. Low clouds.26 mph93%29.89 "Hg2 mi
9:30 PM37 °FRain. Low clouds.21 mph93%29.89 "Hg2 mi
9:00 PM37 °FRain. Low clouds.20 mph93%29.89 "Hg2 mi
8:30 PM37 °FDrizzle. Low clouds.20 mph93%29.92 "Hg4 mi
8:00 PM37 °FDrizzle. Low clouds.18 mph93%29.92 "Hg4 mi
7:30 PM37 °FLight rain. Low clouds.20 mph93%29.92 "Hg5 mi
7:00 PM37 °FDrizzle. Low clouds.21 mph93%29.92 "HgN/A
6:30 PM37 °FLight rain. Low clouds.23 mph93%29.92 "HgN/A
6:00 PM37 °FDrizzle. Low clouds.22 mph93%29.95 "HgN/A
5:30 PM37 °FLow clouds.18 mph93%29.95 "HgN/A
5:00 PM37 °FDrizzle. Low clouds.17 mph93%29.95 "HgN/A
4:30 PM37 °FDrizzle. Fog.18 mph93%29.95 "Hg3 mi
4:00 PM37 °FLow clouds.18 mph93%29.95 "HgN/A
3:30 PM37 °FOvercast.18 mph93%29.95 "HgN/A
3:00 PM39 °FDrizzle. Low clouds.18 mph93%29.95 "HgN/A
2:30 PM39 °FDrizzle. Low clouds.18 mph93%29.98 "HgN/A
2:00 PM39 °FDrizzle. Low clouds.17 mph93%29.98 "HgN/A
1:30 PM39 °FDrizzle. Low clouds.16 mph93%29.98 "HgN/A
1:00 PM39 °FLight rain. Low clouds.14 mph93%29.98 "HgN/A
12:30 PM39 °FLight rain. Low clouds.14 mph93%29.98 "HgN/A
12:00 PM39 °FOvercast.15 mph87%29.98 "HgN/A
11:30 AM39 °FOvercast.21 mph87%29.98 "HgN/A
11:00 AM39 °FOvercast.18 mph87%29.98 "HgN/A
10:30 AM39 °FOvercast.16 mph87%29.98 "HgN/A
10:00 AM37 °FOvercast.16 mph93%29.98 "HgN/A
Weather by CustomWeather, © 2015

See weather overviewHow to use our weather pages